Location: G�ppingen
(48.7089°N, 9.6563°E)
Time: 03:51:42
(UTC+01:00)

ISS - Pass Details

Date: 11 November 2017
Orbit: 402 x 407 km, 51.6° (Epoch: 21 November)

Event Time Altitude Azimuth Distance (km) Brightness Sun altitude
Exits shadow 06:42:32 - 289° (WNW) 1,496 -1.7 -7.1°
Reaches altitude 10° 06:42:37 10° 289° (WNW) 1,458 -1.7 -7.1°
Maximum altitude 06:45:52 70° 206° (SSW) 432 -3.7 -6.6°
Drops below altitude 10° 06:49:07 10° 122° (ESE) 1,452 0.6 -6.1°
Sets 06:51:11 0° 120° (ESE) 2,309 2.3 -5.8°
